Springfield, MO

1:45 AM CDT on July 23, 2017 (GMT -0500)
Springfield-Branson Regional

Weather History for KSGF - January, 2014

Change the Weather History Date:

Thursday, January 23, 2014

  Actual Average Record
Temperature  
Mean Temperature 14 °F 33 °F  
Max Temperature 24 °F 43 °F 75 °F (1909)
Min Temperature 3 °F 22 °F -10 °F (1963)
Degree Days  
Heating Degree Days 51 32  
Month to date heating degree days 825 751  
Since 1 July heating degree days 2748 2561  
Cooling Degree Days 0 0  
Month to date cooling degree days 0 0  
Year to date cooling degree days 0 0  
Moisture  
Dew Point -5 °F    
Average Humidity 51    
Maximum Humidity 66    
Minimum Humidity 36    
Precipitation  
Precipitation 0.00 in 0.07 in 1.12 in (2010)
Month to date precipitation 1.26 1.88  
Year to date precipitation 1.26 1.88  
Snow  
Snow 0.00 in - - ()
Month to date snowfall 9.5  
Since 1 July snowfall 23.0  
Snow Depth 0.00 in    
Sea Level Pressure  
Sea Level Pressure 30.68 in    
Wind  
Wind Speed 13 mph (NNW)    
Max Wind Speed 25 mph    
Max Gust Speed 31 mph    
Visibility 10 miles    
Events      
T = Trace of Precipitation, MM = Missing Value Source: NWS Daily Summary

Daily Weather History Graph

Daily Weather History Graph

Search for Another Location

Airport or City:

Trip Planner

Search our weather history database for the weather conditions in past years. The results will help you decide how hot, cold, wet, or windy it might be!

Date:

Astronomy

Jan. 23, 2014 Rise Set
Actual Time 7:22 AM CST 5:28 PM CST
Civil Twilight 6:54 AM CST 5:56 PM CST
Nautical Twilight 6:23 AM CST 6:28 PM CST
Astronomical Twilight 5:52 AM CST 6:59 PM CST
Moon No Moon Rise 11:08 AM CST
Length of Visible Light 11h 01m
Length of Day
10h 05m
Waning Gibbous, 55% of the Moon is Illuminated
Jan 23
Waning Gibbous
Jan 23
Last Quarter
Jan 30
New
Feb 6
First Quarter
Feb 14
Full

Hourly Weather History & Observations

Time (CST) Temp. Windchill Dew Point Humidity Pressure Visibility Wind Dir Wind Speed Gust Speed Precip Events Conditions
12:33 AM 21.9 °F 6.5 °F 10.0 °F 60% 30.33 in 10.0 mi North 20.7 mph - N/A   Mostly Cloudy
12:52 AM 21.0 °F 4.3 °F 9.0 °F 60% 30.38 in 10.0 mi North 24.2 mph 28.8 mph N/A   Scattered Clouds
1:52 AM 17.1 °F -1.0 °F -2.0 °F 43% 30.42 in 10.0 mi North 24.2 mph 28.8 mph N/A   Clear
2:52 AM 12.9 °F -4.4 °F -5.1 °F 45% 30.48 in 10.0 mi North 18.4 mph - N/A   Clear
3:52 AM 10.9 °F -7.9 °F -7.1 °F 44% 30.51 in 10.0 mi North 20.7 mph - N/A   Clear
4:52 AM 9.0 °F -10.0 °F -6.0 °F 51% 30.55 in 10.0 mi North 19.6 mph - N/A   Partly Cloudy
5:52 AM 8.1 °F -9.6 °F -8.0 °F 48% 30.59 in 10.0 mi North 16.1 mph 25.3 mph N/A   Scattered Clouds
6:52 AM 7.0 °F -10.4 °F -6.0 °F 55% 30.63 in 10.0 mi North 15.0 mph - N/A   Clear
7:52 AM 6.1 °F -10.9 °F -7.1 °F 55% 30.68 in 10.0 mi North 13.8 mph - N/A   Partly Cloudy
8:52 AM 6.1 °F -11.6 °F -6.0 °F 58% 30.71 in 10.0 mi North 15.0 mph - N/A   Clear
9:52 AM 8.1 °F -9.0 °F -7.1 °F 50% 30.75 in 10.0 mi North 15.0 mph - N/A   Clear
10:52 AM 10.0 °F -6.5 °F -6.0 °F 48% 30.77 in 10.0 mi NNW 15.0 mph - N/A   Clear
11:52 AM 12.0 °F -4.5 °F -6.0 °F 44% 30.77 in 10.0 mi NNW 16.1 mph - N/A   Clear
12:52 PM 12.9 °F -1.6 °F -7.1 °F 41% 30.76 in 10.0 mi NNW 12.7 mph - N/A   Clear
1:52 PM 16.0 °F 2.3 °F -7.1 °F 36% 30.75 in 10.0 mi NNW 12.7 mph - N/A   Clear
2:52 PM 15.1 °F 3.3 °F -8.0 °F 36% 30.75 in 10.0 mi NNW 9.2 mph - N/A   Clear
3:52 PM 16.0 °F 2.9 °F -7.1 °F 36% 30.75 in 10.0 mi NNW 11.5 mph - N/A   Clear
4:52 PM 14.0 °F 1.2 °F -8.0 °F 37% 30.76 in 10.0 mi NNW 10.4 mph - N/A   Clear
5:52 PM 10.0 °F -1.9 °F -6.0 °F 48% 30.78 in 10.0 mi NW 8.1 mph - N/A   Clear
6:52 PM 7.0 °F -6.6 °F -5.1 °F 58% 30.80 in 10.0 mi NNW 9.2 mph - N/A   Clear
7:52 PM 7.0 °F -3.3 °F -5.1 °F 58% 30.79 in 10.0 mi NW 5.8 mph - N/A   Clear
8:52 PM 9.0 °F 0.6 °F -5.1 °F 53% 30.79 in 10.0 mi WNW 4.6 mph - N/A   Clear
9:52 PM 8.1 °F -0.5 °F -5.1 °F 55% 30.80 in 10.0 mi West 4.6 mph - N/A   Clear
10:52 PM 5.0 °F -2.1 °F -5.1 °F 63% 30.79 in 10.0 mi West 3.5 mph - N/A   Clear
11:52 PM 5.0 °F - -5.1 °F 63% 30.76 in 10.0 mi Calm Calm - N/A   Clear